DELTA 1 R/B, 1983

Orbit data source: Space-Track

DELTA 1 R/B, 1983 is space debris in SSO originally from a launch on Thu, 03 Feb 1966 UTC launched from the Air Force Eastern Test Range (AFETR). Debris objects in space refer to the collection of defunct objects orbiting the Earth. Examples of debris include non-operational satellites, rocket bodies, and fragments generated from explosions, collisions, or faulty payload assembly.

Loading next visibility...
Identifier
1983, 1966-008B
Orbit
SSO
Country
Flag of USUS
Related business
Manufacturer
ABL
Mission
Spacecraft
Bus & Motor
ALTAIR, Unknown motor
Mass
60 kg wet, 60 kg dry
Launch date (UTC)
1966-02-03 (60 years ago)
Launch vehicle
Unknown
Launch site
Air Force Eastern Test Range (AFETR)
Object type
Payload
Rocket body
Debris
Shape & HBR
Cyl, 0.8 m
Radar Cross Section
0.687 m², Medium (>0.1 m² and < 1m²)

Expand to show TLE details & history
Last TLE update: 22 hours ago

TLE from 22 hours ago
0 DELTA 1 R/B
1 01983U 66008B   25242.09490080  .00001816  00000-0  31839-3 0  9999
2 01983  98.0264 159.8833 0063483 299.6249  59.8642 14.67684562129920
Epoch: 2025-08-30T02:16Z
TLE epoch observation values (Epoch: 2025-08-30T02:16:39.429Z)
Latitude
0.00003°
Longitude
147.18489°
Altitude
649.221 km
Speed
7.545 km/s
True Right ascension
10h 39m 31s
True Declination
0° 00' 00"
Sunlit
Object was in daylight at epoch
Visualization orbit readout
Latitude
Unknown
Longitude
Unknown
Altitude
Unknown
Speed
Unknown
Apparent Right ascension
Unknown
Apparent Declination
Unknown
Sunlit
N/A
Visualization observer readout
Local Sidereal Time
15:34:43
Azimuth
Unknown
Elevation
Unknown
Doppler factor
Unknown
Orbital elements
Apogee altitude
710.248 km
Perigee altitude
620.817 km
Semi-major axis
7,043.669 km
Eccentricity
0.00635
Inclination
98.0264°
RAAN
159.8833°
Arg. of periapsis
299.6249°
True anomaly
60.49584°
Mean anomaly
59.8642°
Eccentric anomaly
60.17977°
Mean motion
3.67151 °/min
Orbital period
98.05 mins
BSTAR
0.00031839
Loading maneuver chart data...
Computing Atmospheric mass density...
Loading historical data...
Loading historical data...
Loading historical data...
Loading historical data...
Loading historical data...
Loading historical data...
Loading historical data...
Other satellites on launch #8 in the year 1966 (1966-02-03 UTC)

Documentation

Showing up to 5 results
|